Timestamp (UTC),Temp / °C,Chill / °C,HIndex / °C,Humid%,Dewpt / °C,Wind / ms¯¹,HiWind / ms¯¹,Winddir / °,Rain / mm,RainRate / mmhr¯¹,Pressure / hPa,InsideTemp / °C,InsideHumid%,Radiation / Wm¯²,UV
2016-09-16 00:00:00,17.6,17.6,17.6,85.0,15.0,0.9,3.1,292.5,0.0,0.0,1001.4,21.3,67.0,0,0
2016-09-16 00:05:00,17.6,17.6,17.6,85.0,15.0,0.4,2.7,225,0.0,0.0,1001.5,21.3,67.0,0,0
2016-09-16 00:10:00,17.5,17.5,17.5,85.0,14.9,0.9,2.7,225,0.0,0.0,1001.4,21.2,67.0,0,0
2016-09-16 00:15:00,17.5,17.5,17.5,85.0,14.9,0.0,1.8,0,0.0,0.0,1001.4,21.2,67.0,0,0
2016-09-16 00:20:00,17.5,17.5,17.5,85.0,14.9,0.4,2.2,225,0.0,0.0,1001.5,21.2,67.0,0,0
2016-09-16 00:25:00,17.4,17.4,17.4,84.0,14.7,0.4,2.2,225,0.0,0.0,1001.4,21.2,67.0,0,0
2016-09-16 00:30:00,17.4,17.4,17.4,84.0,14.7,0.4,2.2,225,0.0,0.0,1001.4,21.2,67.0,0,0
2016-09-16 00:35:00,17.4,17.4,17.4,84.0,14.7,0.4,2.7,247.5,0.0,0.0,1001.5,21.1,67.0,0,0
2016-09-16 00:40:00,17.4,17.4,17.4,84.0,14.7,0.9,3.1,315,0.0,0.0,1001.5,21.1,66.0,0,0
2016-09-16 00:45:00,17.3,17.3,17.3,83.0,14.4,1.3,3.1,292.5,0.0,0.0,1001.6,21.1,66.0,0,0
2016-09-16 00:50:00,17.3,17.3,17.3,83.0,14.4,1.3,3.6,292.5,0.0,0.0,1001.6,21.1,65.0,0,0
2016-09-16 00:55:00,17.2,17.2,17.2,82.0,14.1,0.9,2.7,337.5,0.0,0.0,1001.8,21.1,65.0,0,0
2016-09-16 01:00:00,17.2,17.2,17.2,81.0,13.9,2.2,4.5,270,0.0,0.0,1001.7,21.1,64.0,0,0
2016-09-16 01:05:00,17.2,17.2,17.2,81.0,13.9,1.8,4.5,247.5,0.0,0.0,1001.8,21.1,64.0,0,0
2016-09-16 01:10:00,17.1,17.1,17.1,80.0,13.6,1.8,6.3,292.5,0.0,0.0,1002.0,20.9,64.0,0,0
2016-09-16 01:15:00,17.0,17.0,17.0,80.0,13.5,1.8,4.9,292.5,0.0,0.0,1001.9,20.9,64.0,0,0
2016-09-16 01:20:00,16.9,16.9,16.9,80.0,13.5,0.9,3.1,292.5,0.0,0.0,1001.8,20.9,64.0,0,0
2016-09-16 01:25:00,16.8,16.8,16.8,80.0,13.4,1.8,4.5,247.5,0.0,0.0,1001.7,20.9,64.0,0,0
2016-09-16 01:30:00,16.7,16.7,16.7,81.0,13.4,1.3,3.6,270,0.0,0.0,1001.7,20.8,64.0,0,0
2016-09-16 01:35:00,16.6,16.6,16.6,81.0,13.3,2.2,4.9,270,0.0,0.0,1001.7,20.7,64.0,0,0
2016-09-16 01:40:00,16.4,16.4,16.4,82.0,13.4,1.8,4.0,292.5,0.0,0.0,1001.6,20.6,64.0,0,0
2016-09-16 01:45:00,16.3,16.3,16.3,82.0,13.3,1.3,4.5,315,0.0,0.0,1001.7,20.5,64.0,0,0
2016-09-16 01:50:00,16.3,16.3,16.3,82.0,13.2,1.3,5.4,247.5,0.0,0.0,1001.7,20.4,65.0,0,0
2016-09-16 01:55:00,16.2,16.2,16.2,82.0,13.1,0.9,3.6,337.5,0.0,0.0,1001.6,20.4,65.0,0,0
2016-09-16 02:00:00,16.2,16.2,16.2,83.0,13.3,1.8,4.0,247.5,0.0,0.0,1001.6,20.3,65.0,0,0
2016-09-16 02:05:00,16.1,16.1,16.1,83.0,13.2,1.3,4.0,315,0.0,0.0,1001.8,20.3,65.0,0,0
2016-09-16 02:10:00,16.1,16.1,16.1,83.0,13.2,0.9,3.1,315,0.0,0.0,1001.7,20.2,65.0,0,0
2016-09-16 02:15:00,16.1,16.1,16.1,84.0,13.3,0.9,3.1,247.5,0.0,0.0,1001.7,20.2,65.0,0,0
2016-09-16 02:20:00,16.0,16.0,16.0,84.0,13.3,1.3,3.6,247.5,0.0,0.0,1001.6,20.1,66.0,0,0
2016-09-16 02:25:00,16.1,16.1,16.1,84.0,13.3,1.8,3.6,225,0.0,0.0,1001.6,20.1,66.0,0,0
2016-09-16 02:30:00,16.1,16.1,16.1,84.0,13.3,1.3,4.0,292.5,0.0,0.0,1001.7,20.1,66.0,0,0
2016-09-16 02:35:00,16.0,16.0,16.0,85.0,13.5,1.8,4.0,292.5,0.0,0.0,1001.7,20.0,66.0,0,0
2016-09-16 02:40:00,16.1,16.1,16.1,85.0,13.5,1.3,4.5,225,0.0,0.0,1001.6,20.0,67.0,0,0
2016-09-16 02:45:00,16.0,16.0,16.0,85.0,13.5,1.8,4.0,270,0.0,0.0,1001.6,20.0,67.0,0,0
2016-09-16 02:50:00,16.0,16.0,16.0,85.0,13.5,0.9,4.0,247.5,0.0,0.0,1001.7,20.0,67.0,0,0
2016-09-16 02:55:00,16.0,16.0,16.0,85.0,13.5,1.3,3.6,202.5,0.0,0.0,1001.7,20.0,67.0,0,0
2016-09-16 03:00:00,16.0,16.0,16.0,85.0,13.5,2.2,4.9,315,0.0,0.0,1001.7,20.0,67.0,0,0
2016-09-16 03:05:00,16.0,16.0,16.0,85.0,13.5,0.4,2.7,270,0.0,0.0,1001.7,20.0,67.0,0,0
2016-09-16 03:10:00,16.0,16.0,16.0,85.0,13.5,0.9,3.1,270,0.0,0.0,1001.7,20.0,67.0,0,0
2016-09-16 03:15:00,15.9,15.9,15.9,86.0,13.6,1.3,4.0,247.5,0.0,0.0,1001.7,19.9,67.0,0,0
2016-09-16 03:20:00,15.9,15.9,15.9,86.0,13.6,1.3,3.1,270,0.0,0.0,1001.7,20.0,67.0,0,0
2016-09-16 03:25:00,15.9,15.9,15.9,86.0,13.6,1.3,4.0,247.5,0.0,0.0,1001.7,19.9,67.0,0,0
2016-09-16 03:30:00,15.9,15.9,15.9,86.0,13.6,1.8,4.0,247.5,0.0,0.0,1001.7,19.9,68.0,0,0
2016-09-16 03:35:00,15.9,15.9,15.9,86.0,13.6,1.3,4.0,225,0.0,0.0,1001.7,19.8,68.0,0,0
2016-09-16 03:40:00,15.9,15.9,15.9,86.0,13.6,1.8,4.9,292.5,0.0,0.0,1001.8,19.9,68.0,0,0
2016-09-16 03:45:00,16.0,16.0,16.0,86.0,13.7,1.3,3.1,247.5,0.0,0.0,1001.7,19.8,68.0,0,0
2016-09-16 03:50:00,16.0,16.0,16.0,87.0,13.8,1.8,4.0,315,0.0,0.0,1001.8,19.9,68.0,0,0
2016-09-16 03:55:00,16.1,16.1,16.1,87.0,13.9,2.2,4.9,292.5,0.0,0.0,1001.9,19.9,68.0,0,0
2016-09-16 04:00:00,16.1,16.1,16.1,87.0,13.9,1.3,3.6,247.5,0.0,0.0,1001.8,19.9,68.0,0,0
2016-09-16 04:05:00,16.1,16.1,16.1,87.0,13.9,1.8,5.4,315,0.0,0.0,1001.8,19.9,68.0,0,0
2016-09-16 04:10:00,16.1,16.1,16.1,87.0,13.9,1.3,4.0,292.5,0.0,0.0,1001.8,19.9,68.0,0,0
2016-09-16 04:15:00,16.1,16.1,16.1,87.0,13.9,2.2,4.0,292.5,0.0,0.0,1001.7,20.0,68.0,0,0
2016-09-16 04:20:00,16.1,16.1,16.1,87.0,13.9,1.8,4.0,315,0.0,0.0,1001.6,20.0,68.0,0,0
2016-09-16 04:25:00,16.1,16.1,16.1,87.0,13.9,1.3,3.6,292.5,0.0,0.0,1001.7,20.0,68.0,0,0
2016-09-16 04:30:00,16.1,16.1,16.1,87.0,13.9,0.9,3.1,247.5,0.0,0.0,1001.7,19.9,68.0,0,0
2016-09-16 04:35:00,16.2,16.2,16.2,87.0,14.0,1.3,4.0,270,0.0,0.0,1001.7,19.9,68.0,0,0
2016-09-16 04:40:00,16.2,16.2,16.2,87.0,14.0,1.3,3.6,225,0.0,0.0,1001.7,19.9,68.0,0,0
2016-09-16 04:45:00,16.2,16.2,16.2,87.0,14.0,1.3,3.6,270,0.0,0.0,1001.6,19.8,69.0,0,0
2016-09-16 04:50:00,16.2,16.2,16.2,87.0,14.0,1.3,3.1,157.5,0.0,0.0,1001.8,19.8,69.0,0,0
2016-09-16 04:55:00,16.2,16.2,16.2,87.0,14.0,1.8,4.0,0,0.0,0.0,1002.0,19.8,69.0,0,0
2016-09-16 05:00:00,16.2,16.2,16.2,87.0,14.1,0.9,3.6,225,0.0,0.0,1002.0,19.8,69.0,0,0
2016-09-16 05:05:00,16.2,16.2,16.2,87.0,14.1,1.3,4.0,337.5,0.0,0.0,1002.0,19.8,69.0,0,0
2016-09-16 05:10:00,16.2,16.2,16.2,87.0,14.1,1.3,2.7,292.5,0.0,0.0,1002.0,19.8,69.0,0,0
2016-09-16 05:15:00,16.2,16.2,16.2,87.0,14.0,2.7,5.4,292.5,0.0,0.0,1002.0,19.8,69.0,0,0
2016-09-16 05:20:00,16.2,16.2,16.2,87.0,14.0,2.2,5.4,315,0.0,0.0,1002.0,19.8,69.0,0,0
2016-09-16 05:25:00,16.1,16.1,16.1,87.0,13.9,2.7,5.8,337.5,0.0,0.0,1001.9,19.9,68.0,0,0
2016-09-16 05:30:00,16.1,16.1,16.1,86.0,13.7,2.2,5.4,225,0.0,0.0,1002.0,19.9,67.0,0,0
2016-09-16 05:35:00,16.0,16.0,16.0,86.0,13.7,2.2,6.3,292.5,0.0,0.0,1002.1,19.9,67.0,0,0
2016-09-16 05:40:00,15.9,15.9,15.9,86.0,13.6,1.3,3.6,247.5,0.0,0.0,1002.2,19.8,67.0,0,0
2016-09-16 05:45:00,15.9,15.9,15.9,85.0,13.4,1.8,4.0,292.5,0.0,0.0,1002.4,19.8,66.0,0,0
2016-09-16 05:50:00,15.8,15.8,15.8,85.0,13.3,1.3,3.6,247.5,0.0,0.0,1002.5,19.8,66.0,0,0
2016-09-16 05:55:00,15.8,15.8,15.8,84.0,13.1,0.9,3.1,270,0.0,0.0,1002.7,19.7,65.0,0,0
2016-09-16 06:00:00,15.8,15.8,15.8,84.0,13.1,1.3,5.4,0,0.0,0.0,1002.6,19.6,65.0,0,0
2016-09-16 06:05:00,15.7,15.7,15.7,83.0,12.8,1.8,4.0,292.5,0.0,0.0,1002.6,19.6,64.0,0,0
2016-09-16 06:10:00,15.6,15.6,15.6,82.0,12.5,2.2,4.9,315,0.0,0.0,1002.7,19.6,63.0,0,0
2016-09-16 06:15:00,15.6,15.6,15.6,81.0,12.3,1.8,4.0,315,0.0,0.0,1002.5,19.6,63.0,0,0
2016-09-16 06:20:00,15.5,15.5,15.5,79.0,11.9,3.1,6.3,315,0.0,0.0,1002.4,19.6,62.0,0,0
2016-09-16 06:25:00,15.4,15.4,15.4,79.0,11.8,2.2,4.9,315,0.0,0.0,1002.3,19.6,61.0,5,0
2016-09-16 06:30:00,15.4,15.4,15.4,78.0,11.6,1.8,5.8,292.5,0.0,0.0,1002.4,19.6,61.0,8,0
2016-09-16 06:35:00,15.4,15.4,15.4,78.0,11.6,1.8,4.5,292.5,0.0,0.0,1002.4,19.4,60.0,11,0
2016-09-16 06:40:00,15.3,15.3,15.3,77.0,11.3,1.8,5.8,315,0.0,0.0,1002.4,19.4,61.0,12,0
2016-09-16 06:45:00,15.3,15.3,15.3,77.0,11.3,2.2,4.5,247.5,0.0,0.0,1002.4,19.3,60.0,11,0
2016-09-16 06:50:00,15.2,15.2,15.2,77.0,11.2,2.7,6.7,292.5,0.0,0.0,1002.4,19.3,60.0,12,0
2016-09-16 06:55:00,15.2,15.2,15.2,77.0,11.2,3.1,5.8,315,0.0,0.0,1002.5,19.4,60.0,16,0
2016-09-16 07:00:00,15.1,15.1,15.1,77.0,11.1,2.2,4.0,337.5,0.0,0.0,1002.5,19.4,60.0,19,0
2016-09-16 07:05:00,15.0,15.0,15.0,77.0,11.0,3.1,5.8,315,0.0,0.0,1002.5,19.4,60.0,21,0
2016-09-16 07:10:00,15.0,15.0,15.0,78.0,11.2,2.2,4.9,315,0.0,0.0,1002.4,19.4,60.0,24,0
2016-09-16 07:15:00,15.0,15.0,15.0,78.0,11.2,2.2,4.9,292.5,0.0,0.0,1002.4,19.4,60.0,31,0
2016-09-16 07:20:00,15.0,15.0,15.0,78.0,11.2,2.2,4.9,292.5,0.0,0.0,1002.4,19.4,60.0,27,0
2016-09-16 07:25:00,15.0,15.0,15.0,78.0,11.2,0.9,4.0,292.5,0.0,0.0,1002.5,19.4,60.0,25,0
2016-09-16 07:30:00,15.0,15.0,15.0,78.0,11.2,2.2,4.9,270,0.0,0.0,1002.6,19.4,60.0,27,0
2016-09-16 07:35:00,15.0,15.0,15.0,79.0,11.4,1.8,4.5,247.5,0.0,0.0,1002.6,19.4,60.0,30,0
2016-09-16 07:40:00,15.0,15.0,15.0,79.0,11.4,2.2,4.0,292.5,0.0,0.0,1002.7,19.4,61.0,21,0
2016-09-16 07:45:00,15.0,15.0,15.0,80.0,11.6,2.2,4.5,292.5,0.0,0.0,1002.7,19.4,61.0,17,0
2016-09-16 07:50:00,15.0,15.0,15.0,80.0,11.6,2.2,5.4,247.5,0.0,0.0,1003.0,19.4,61.0,16,0
2016-09-16 07:55:00,15.0,15.0,15.0,80.0,11.6,1.8,3.1,270,0.0,0.0,1002.8,19.4,62.0,20,0
2016-09-16 08:00:00,14.9,14.9,14.9,81.0,11.7,2.2,5.8,315,0.0,0.0,1002.7,19.4,62.0,25,0
2016-09-16 08:05:00,14.8,14.8,14.8,81.0,11.6,1.3,4.0,292.5,0.0,0.0,1003.1,19.3,62.0,24,0
2016-09-16 08:10:00,14.8,14.8,14.8,82.0,11.7,1.3,5.4,247.5,0.0,0.0,1003.3,19.2,63.0,20,0
2016-09-16 08:15:00,14.7,14.7,14.7,82.0,11.6,1.3,4.0,225,0.0,0.0,1003.2,19.2,63.0,17,0
2016-09-16 08:20:00,14.6,14.6,14.6,83.0,11.7,2.2,4.0,292.5,0.0,0.0,1003.4,19.1,64.0,17,0
2016-09-16 08:25:00,14.4,14.4,14.4,84.0,11.8,2.2,4.9,315,0.0,0.0,1003.2,19.0,64.0,20,0
2016-09-16 08:30:00,14.3,14.3,14.3,84.0,11.6,3.1,8.9,337.5,0.2,2.1,1003.2,19.1,64.0,25,0
2016-09-16 08:35:00,14.1,14.1,14.1,85.0,11.6,4.0,8.9,315,0.3,4.9,1003.3,19.0,66.0,35,0
2016-09-16 08:40:00,13.9,13.9,13.9,86.0,11.6,3.6,5.4,315,0.2,3.3,1003.3,18.9,67.0,60,0
2016-09-16 08:45:00,13.8,13.8,13.8,86.0,11.5,3.1,6.3,315,0.1,1.5,1003.2,18.9,67.0,63,0
2016-09-16 08:50:00,13.7,13.7,13.7,86.0,11.4,3.1,6.3,22.5,0.0,1.1,1003.5,19.0,66.0,54,0
2016-09-16 08:55:00,13.7,13.7,13.7,87.0,11.5,2.7,4.9,315,0.1,1.1,1003.6,19.1,66.0,38,0
2016-09-16 09:00:00,13.6,13.6,13.6,87.0,11.5,2.2,5.4,315,0.1,1.1,1003.7,19.1,65.0,33,0
2016-09-16 09:05:00,13.7,13.7,13.7,87.0,11.5,1.3,4.0,337.5,0.0,1.1,1003.8,19.1,65.0,40,0
2016-09-16 09:10:00,13.7,13.7,13.7,88.0,11.7,0.9,2.2,247.5,0.0,0.6,1004.0,19.0,66.0,45,0
2016-09-16 09:15:00,13.7,13.7,13.7,88.0,11.7,1.3,4.0,292.5,0.0,0.4,1004.1,18.8,66.0,55,0
2016-09-16 09:20:00,13.7,13.7,13.7,88.0,11.8,1.3,4.0,292.5,0.0,0.0,1004.0,18.8,66.0,83,0.2
2016-09-16 09:25:00,13.7,13.7,13.7,88.0,11.8,1.8,4.0,270,0.0,0.0,1004.1,18.9,67.0,85,0.3
2016-09-16 09:30:00,13.7,13.7,13.7,88.0,11.8,1.8,4.9,292.5,0.0,0.0,1004.0,19.2,68.0,57,0
2016-09-16 09:35:00,13.7,13.7,13.7,89.0,11.9,1.8,4.0,315,0.0,0.0,1003.9,19.4,67.0,46,0
2016-09-16 09:40:00,13.8,13.8,13.8,89.0,12.0,1.3,3.1,292.5,0.0,0.0,1003.9,19.7,67.0,59,0
2016-09-16 09:45:00,13.8,13.8,13.8,89.0,12.1,1.3,4.0,292.5,0.0,0.0,1003.9,19.7,66.0,67,0.1
2016-09-16 09:50:00,13.9,13.9,13.9,89.0,12.1,1.8,4.0,315,0.0,0.0,1004.0,19.8,66.0,62,0
2016-09-16 09:55:00,13.9,13.9,13.9,89.0,12.1,1.3,3.6,270,0.0,0.0,1003.8,20.0,66.0,68,0
2016-09-16 10:00:00,13.9,13.9,13.9,89.0,12.1,1.8,3.6,292.5,0.0,0.0,1004.0,20.1,65.0,78,0.1
2016-09-16 10:05:00,13.9,13.9,13.9,89.0,12.2,1.8,3.1,292.5,0.0,0.0,1003.9,20.0,65.0,89,0.5
2016-09-16 10:10:00,13.9,13.9,13.9,89.0,12.2,1.3,3.6,292.5,0.0,0.0,1004.1,19.9,65.0,97,0.6
2016-09-16 10:15:00,14.0,14.0,14.0,89.0,12.2,1.8,4.0,315,0.0,0.0,1004.0,19.8,65.0,103,0.6
2016-09-16 10:20:00,14.1,14.1,14.1,90.0,12.4,1.8,4.0,292.5,0.0,0.0,1004.0,19.7,65.0,119,0.7
2016-09-16 10:25:00,14.1,14.1,14.1,89.0,12.3,2.2,4.9,315,0.0,0.0,1003.9,19.7,65.0,130,0.8
2016-09-16 10:30:00,14.2,14.2,14.2,90.0,12.5,1.3,3.1,337.5,0.0,0.0,1003.9,19.7,65.0,148,0.9
2016-09-16 10:35:00,14.2,14.2,14.2,90.0,12.6,1.8,3.6,292.5,0.0,0.0,1004.0,19.7,65.0,192,1.3
2016-09-16 10:40:00,14.3,14.3,14.3,90.0,12.7,1.3,3.6,247.5,0.0,0.0,1004.1,19.8,65.0,210,1.5
2016-09-16 10:45:00,14.4,14.4,14.4,90.0,12.8,1.3,3.1,292.5,0.0,0.0,1004.2,19.8,65.0,218,1.5
2016-09-16 10:50:00,14.5,14.5,14.5,90.0,12.9,1.3,3.6,315,0.0,0.0,1004.3,19.9,64.0,247,1.6
2016-09-16 10:55:00,14.6,14.6,14.6,89.0,12.8,2.7,6.3,292.5,0.0,0.0,1004.4,20.1,62.0,243,1.7
2016-09-16 11:00:00,14.5,14.5,14.5,88.0,12.5,2.7,5.4,315,0.0,0.0,1004.4,20.3,62.0,219,1.5
2016-09-16 11:05:00,14.5,14.5,14.5,87.0,12.4,2.2,5.8,0,0.0,0.0,1004.5,20.3,60.0,208,1.4
2016-09-16 11:10:00,14.4,14.4,14.4,86.0,12.1,2.7,6.3,0,0.0,0.0,1004.4,20.4,59.0,313,1.9
2016-09-16 11:15:00,14.7,14.7,14.7,85.0,12.2,2.7,4.9,337.5,0.0,0.0,1004.6,20.4,59.0,353,2.3
2016-09-16 11:20:00,14.9,14.9,14.9,83.0,12.1,2.7,4.9,315,0.0,0.0,1004.6,20.6,58.0,468,2.8
2016-09-16 11:25:00,15.2,15.2,15.2,81.0,11.9,2.7,7.2,315,0.0,0.0,1004.5,20.7,58.0,461,3.1
2016-09-16 11:30:00,15.6,15.6,15.6,80.0,12.2,1.8,5.8,337.5,0.0,0.0,1004.6,20.8,57.0,616,3.7
2016-09-16 11:35:00,15.9,15.9,15.9,77.0,11.9,3.6,6.3,337.5,0.0,0.0,1004.6,20.8,57.0,467,3.2
2016-09-16 11:40:00,16.2,16.2,16.2,75.0,11.7,3.6,7.2,315,0.0,0.0,1004.6,20.9,56.0,389,2.9
2016-09-16 11:45:00,16.3,16.3,16.3,74.0,11.6,3.1,6.3,315,0.0,0.0,1004.7,20.9,55.0,325,2.4
2016-09-16 11:50:00,16.3,16.3,16.3,73.0,11.5,3.1,6.3,315,0.0,0.0,1004.7,21.1,55.0,339,2.5
2016-09-16 11:55:00,16.5,16.5,16.5,73.0,11.6,2.2,4.0,270,0.0,0.0,1004.6,21.1,56.0,608,3.6
2016-09-16 12:00:00,16.9,16.9,16.9,73.0,12.0,2.7,5.8,0,0.0,0.0,1004.5,21.2,55.0,797,4.3
2016-09-16 12:05:00,17.3,17.3,17.3,70.0,11.8,3.6,6.7,292.5,0.0,0.0,1004.4,21.4,54.0,456,3.6
2016-09-16 12:10:00,17.4,17.4,17.4,68.0,11.5,4.0,9.4,315,0.0,0.0,1004.5,21.4,53.0,434,3
2016-09-16 12:15:00,17.3,17.3,17.3,66.0,10.9,4.0,8.9,315,0.0,0.0,1004.4,21.4,52.0,286,2.9
2016-09-16 12:20:00,17.2,17.2,17.2,66.0,10.8,4.0,8.0,315,0.0,0.0,1004.4,21.4,51.0,196,2.4
2016-09-16 12:25:00,17.2,17.2,17.2,67.0,11.0,3.6,6.3,0,0.0,0.0,1004.4,21.3,52.0,511,3
2016-09-16 12:30:00,17.1,17.1,17.1,66.0,10.7,4.0,8.0,337.5,0.0,0.0,1004.4,21.2,52.0,254,2.9
2016-09-16 12:35:00,17.1,17.1,17.1,66.0,10.7,2.2,5.8,0,0.0,0.0,1004.3,21.2,52.0,270,2.5
2016-09-16 12:40:00,17.1,17.1,17.1,65.0,10.5,3.6,9.4,315,0.0,0.0,1004.5,21.1,51.0,195,2.4
2016-09-16 12:45:00,17.0,17.0,17.0,64.0,10.1,4.9,10.3,315,0.1,0.0,1004.4,20.9,51.0,214,2.4
2016-09-16 12:50:00,16.9,16.9,16.9,65.0,10.3,4.5,8.9,315,0.0,0.0,1004.5,20.9,50.0,176,2
2016-09-16 12:55:00,16.8,16.8,16.8,65.0,10.2,3.6,8.5,337.5,0.0,0.0,1004.5,20.9,51.0,179,1.8
2016-09-16 13:00:00,16.7,16.7,16.7,66.0,10.3,3.1,6.3,315,0.0,0.0,1004.6,20.9,51.0,172,1.6
2016-09-16 13:05:00,16.7,16.7,16.7,66.0,10.3,3.6,6.7,292.5,0.0,0.0,1004.6,20.8,51.0,179,1.5
2016-09-16 13:10:00,16.6,16.6,16.6,67.0,10.5,3.1,6.3,315,0.0,0.0,1004.6,20.8,51.0,190,1.4
2016-09-16 13:15:00,16.7,16.7,16.7,68.0,10.7,2.2,5.8,337.5,0.0,0.0,1004.6,20.8,52.0,201,1.3
2016-09-16 13:20:00,16.7,16.7,16.7,67.0,10.5,2.7,5.4,315,0.0,0.0,1004.5,20.8,51.0,203,1.2
2016-09-16 13:25:00,16.6,16.6,16.6,67.0,10.5,3.6,8.0,315,0.0,0.0,1004.4,20.8,51.0,197,1.1
2016-09-16 13:30:00,16.6,16.6,16.6,66.0,10.2,3.1,6.7,315,0.0,0.0,1004.4,20.9,51.0,189,1
2016-09-16 13:35:00,16.6,16.6,16.6,66.0,10.2,3.1,6.3,337.5,0.0,0.0,1004.3,20.9,51.0,186,0.9
2016-09-16 13:40:00,16.6,16.6,16.6,66.0,10.2,4.0,9.4,315,0.0,0.0,1004.3,20.9,51.0,187,0.9
2016-09-16 13:45:00,16.6,16.6,16.6,66.0,10.2,3.6,8.0,315,0.0,0.0,1004.4,20.9,50.0,196,1
2016-09-16 13:50:00,16.6,16.6,16.6,65.0,9.9,3.6,7.2,315,0.0,0.0,1004.5,20.9,50.0,207,1
2016-09-16 13:55:00,16.6,16.6,16.6,65.0,9.9,3.1,8.0,337.5,0.0,0.0,1004.6,21.1,50.0,216,1.1
2016-09-16 14:00:00,16.6,16.6,16.6,65.0,10.0,2.7,8.0,315,0.0,0.0,1004.7,21.2,50.0,220,1.1
2016-09-16 14:05:00,16.7,16.7,16.7,65.0,10.1,2.2,4.0,0,0.0,0.0,1004.8,21.2,50.0,217,1.1
2016-09-16 14:10:00,16.7,16.7,16.7,64.0,9.9,2.7,5.8,292.5,0.0,0.0,1004.8,21.2,49.0,246,1.2
2016-09-16 14:15:00,16.8,16.8,16.8,64.0,10.0,3.6,8.9,315,0.0,0.0,1004.7,21.2,50.0,309,1.4
2016-09-16 14:20:00,16.9,16.9,16.9,64.0,10.1,2.7,6.3,337.5,0.0,0.0,1004.7,21.3,49.0,379,1.6
2016-09-16 14:25:00,17.1,17.1,17.1,64.0,10.2,2.7,5.4,292.5,0.0,0.0,1004.9,21.2,49.0,317,1.4
2016-09-16 14:30:00,17.2,17.2,17.2,63.0,10.1,3.1,6.7,315,0.0,0.0,1005.0,21.2,49.0,223,1
2016-09-16 14:35:00,17.2,17.2,17.2,64.0,10.3,3.1,8.0,315,0.0,0.0,1005.1,21.2,49.0,232,1
2016-09-16 14:40:00,17.1,17.1,17.1,64.0,10.2,4.0,7.2,315,0.0,0.0,1004.9,21.3,49.0,271,1.1
2016-09-16 14:45:00,17.2,17.2,17.2,64.0,10.3,2.2,7.2,337.5,0.0,0.0,1004.9,21.3,49.0,508,1.8
2016-09-16 14:50:00,17.5,17.5,17.5,63.0,10.4,4.5,9.4,337.5,0.0,0.0,1005.1,21.4,49.0,602,2.1
2016-09-16 14:55:00,17.7,17.7,17.7,62.0,10.3,3.6,6.7,0,0.0,0.0,1005.1,21.5,49.0,457,1.6
2016-09-16 15:00:00,17.8,17.8,17.8,62.0,10.4,2.7,6.3,292.5,0.0,0.0,1005.3,21.5,49.0,283,1.3
2016-09-16 15:05:00,17.8,17.8,17.8,62.0,10.4,3.6,6.3,292.5,0.0,0.0,1005.3,21.4,48.0,372,1.4
2016-09-16 15:10:00,17.8,17.8,17.8,61.0,10.2,3.6,7.2,315,0.0,0.0,1005.6,21.5,48.0,347,1.3
2016-09-16 15:15:00,17.9,17.9,17.9,62.0,10.6,2.7,5.8,337.5,0.0,0.0,1005.4,21.5,48.0,475,1.5
2016-09-16 15:20:00,18.1,18.1,18.1,61.0,10.4,5.4,10.3,337.5,0.0,0.0,1005.5,21.5,49.0,410,1.4
2016-09-16 15:25:00,17.9,17.9,17.9,61.0,10.3,4.9,8.9,337.5,0.0,0.0,1005.6,21.6,49.0,425,1.2
2016-09-16 15:30:00,17.9,17.9,17.9,61.0,10.3,4.5,8.0,337.5,0.0,0.0,1005.5,21.6,48.0,360,1.1
2016-09-16 15:35:00,17.8,17.8,17.8,61.0,10.2,4.5,8.5,337.5,0.0,0.0,1005.7,21.5,48.0,323,0.9
2016-09-16 15:40:00,17.8,17.8,17.8,60.0,9.9,4.5,9.8,315,0.0,0.0,1005.5,21.6,48.0,245,0.7
2016-09-16 15:45:00,17.7,17.7,17.7,60.0,9.8,4.9,9.4,337.5,0.0,0.0,1005.5,21.6,47.0,166,0.8
2016-09-16 15:50:00,17.7,17.7,17.7,60.0,9.8,4.0,6.7,337.5,0.0,0.0,1005.5,21.6,48.0,353,0.9
2016-09-16 15:55:00,17.8,17.8,17.8,60.0,9.9,3.6,8.9,337.5,0.0,0.0,1005.5,21.6,47.0,341,0.7
2016-09-16 16:00:00,17.9,17.9,17.9,59.0,9.8,4.0,8.5,315,0.0,0.0,1005.6,21.5,48.0,333,0.7
2016-09-16 16:05:00,18.0,18.0,18.0,59.0,9.9,4.0,10.3,315,0.0,0.0,1005.6,21.5,47.0,310,0.6
2016-09-16 16:10:00,18.2,18.2,18.2,59.0,10.0,3.1,8.5,292.5,0.0,0.0,1005.7,21.5,47.0,389,0.6
2016-09-16 16:15:00,18.2,18.2,18.2,58.0,9.8,4.0,9.4,0,0.0,0.0,1005.7,21.5,47.0,177,0.1
2016-09-16 16:20:00,18.2,18.2,18.2,59.0,10.0,2.7,4.9,315,0.0,0.0,1005.9,21.5,47.0,85,0
2016-09-16 16:25:00,17.9,17.9,17.9,59.0,9.8,2.7,5.8,292.5,0.0,0.0,1006.0,21.4,47.0,154,0
2016-09-16 16:30:00,17.8,17.8,17.8,60.0,10.0,3.1,6.7,292.5,0.0,0.0,1006.1,21.4,47.0,228,0
2016-09-16 16:35:00,17.8,17.8,17.8,60.0,9.9,2.2,5.4,270,0.0,0.0,1006.1,21.3,47.0,124,0
2016-09-16 16:40:00,17.6,17.6,17.6,60.0,9.7,3.1,6.3,337.5,0.0,0.0,1006.2,21.3,47.0,105,0
2016-09-16 16:45:00,17.4,17.4,17.4,61.0,9.8,2.7,5.8,337.5,0.0,0.0,1006.2,21.3,47.0,91,0
2016-09-16 16:50:00,17.3,17.3,17.3,61.0,9.7,2.2,4.5,315,0.0,0.0,1006.1,21.2,48.0,78,0
2016-09-16 16:55:00,17.2,17.2,17.2,62.0,9.8,2.7,5.8,0,0.0,0.0,1006.1,21.2,47.0,55,0
2016-09-16 17:00:00,17.0,17.0,17.0,62.0,9.7,2.7,4.9,315,0.0,0.0,1006.4,20.9,48.0,42,0
2016-09-16 17:05:00,16.8,16.8,16.8,63.0,9.7,2.2,5.4,292.5,0.0,0.0,1006.4,20.9,48.0,32,0
2016-09-16 17:10:00,16.6,16.6,16.6,64.0,9.8,2.2,4.9,292.5,0.0,0.0,1006.5,20.8,49.0,29,0
2016-09-16 17:15:00,16.4,16.4,16.4,65.0,9.8,2.7,4.9,315,0.0,0.0,1006.4,20.7,49.0,32,0
2016-09-16 17:20:00,16.3,16.3,16.3,66.0,10.0,2.2,4.9,315,0.0,0.0,1006.6,20.6,49.0,39,0
2016-09-16 17:25:00,16.2,16.2,16.2,66.0,9.8,2.7,5.4,292.5,0.0,0.0,1006.6,20.6,49.0,40,0
2016-09-16 17:30:00,16.1,16.1,16.1,67.0,10.0,2.2,4.5,315,0.0,0.0,1006.6,20.5,50.0,39,0
2016-09-16 17:35:00,16.1,16.1,16.1,67.0,9.9,2.7,5.4,315,0.0,0.0,1006.7,20.4,50.0,28,0
2016-09-16 17:40:00,15.9,15.9,15.9,67.0,9.8,2.7,5.4,0,0.0,0.0,1006.8,20.4,50.0,24,0
2016-09-16 17:45:00,15.9,15.9,15.9,68.0,10.0,2.7,6.7,337.5,0.0,0.0,1006.9,20.4,50.0,23,0
2016-09-16 17:50:00,15.9,15.9,15.9,68.0,10.0,2.7,4.9,315,0.0,0.0,1006.9,20.3,50.0,17,0
2016-09-16 17:55:00,15.8,15.8,15.8,68.0,9.9,2.7,4.9,315,0.0,0.0,1006.9,20.4,51.0,13,0
2016-09-16 18:00:00,15.8,15.8,15.8,68.0,9.9,2.2,4.9,315,0.0,0.0,1007.0,20.3,51.0,10,0
2016-09-16 18:05:00,15.8,15.8,15.8,69.0,10.1,3.1,6.3,315,0.0,0.0,1006.9,20.2,51.0,6,0
2016-09-16 18:10:00,15.8,15.8,15.8,69.0,10.1,3.6,6.3,315,0.0,0.0,1007.0,20.2,51.0,3,0
2016-09-16 18:15:00,15.7,15.7,15.7,69.0,10.0,2.7,4.9,315,0.0,0.0,1007.0,20.1,51.0,0,0
2016-09-16 18:20:00,15.7,15.7,15.7,69.0,10.0,2.7,4.5,315,0.0,0.0,1007.0,20.1,51.0,0,0
2016-09-16 18:25:00,15.6,15.6,15.6,69.0,9.9,1.8,5.8,292.5,0.0,0.0,1007.1,20.0,51.0,0,0
2016-09-16 18:30:00,15.6,15.6,15.6,69.0,9.9,3.1,4.9,315,0.0,0.0,1007.2,19.9,51.0,0,0
2016-09-16 18:35:00,15.5,15.5,15.5,69.0,9.8,2.7,5.4,292.5,0.0,0.0,1007.1,19.9,52.0,0,0
2016-09-16 18:40:00,15.4,15.4,15.4,70.0,10.0,2.7,4.5,315,0.0,0.0,1007.1,19.8,52.0,0,0
2016-09-16 18:45:00,15.3,15.3,15.3,70.0,9.9,2.2,4.0,315,0.0,0.0,1007.2,19.7,52.0,0,0
2016-09-16 18:50:00,15.3,15.3,15.3,70.0,9.8,2.7,6.7,315,0.0,0.0,1007.2,19.7,52.0,0,0
2016-09-16 18:55:00,15.2,15.2,15.2,70.0,9.7,2.7,5.4,337.5,0.0,0.0,1007.3,19.7,52.0,0,0
2016-09-16 19:00:00,15.1,15.1,15.1,71.0,9.8,1.8,4.0,337.5,0.0,0.0,1007.5,19.6,53.0,0,0
2016-09-16 19:05:00,15.0,15.0,15.0,71.0,9.8,2.2,5.8,292.5,0.0,0.0,1007.7,19.4,53.0,0,0
2016-09-16 19:10:00,15.0,15.0,15.0,71.0,9.8,2.2,4.9,315,0.0,0.0,1007.8,19.4,53.0,0,0
2016-09-16 19:15:00,15.0,15.0,15.0,71.0,9.8,2.2,4.5,315,0.0,0.0,1007.9,19.4,53.0,0,0
2016-09-16 19:20:00,14.9,14.9,14.9,71.0,9.7,2.7,6.7,337.5,0.0,0.0,1007.9,19.3,53.0,0,0
2016-09-16 19:25:00,14.8,14.8,14.8,71.0,9.6,2.2,4.5,315,0.0,0.0,1008.0,19.3,53.0,0,0
2016-09-16 19:30:00,14.8,14.8,14.8,72.0,9.8,1.8,4.0,315,0.0,0.0,1008.2,19.3,53.0,0,0
2016-09-16 19:35:00,14.7,14.7,14.7,72.0,9.7,2.2,4.9,292.5,0.0,0.0,1008.2,19.2,53.0,0,0
2016-09-16 19:40:00,14.7,14.7,14.7,72.0,9.7,2.2,4.9,337.5,0.0,0.0,1008.4,19.2,53.0,0,0
2016-09-16 19:45:00,14.6,14.6,14.6,72.0,9.6,2.2,6.7,315,0.0,0.0,1008.4,19.1,54.0,0,0
2016-09-16 19:50:00,14.6,14.6,14.6,72.0,9.6,1.8,4.5,315,0.0,0.0,1008.4,19.1,54.0,0,0
2016-09-16 19:55:00,14.5,14.5,14.5,72.0,9.5,2.2,4.5,292.5,0.0,0.0,1008.4,19.1,54.0,0,0
2016-09-16 20:00:00,14.4,14.4,14.4,73.0,9.7,2.2,4.5,315,0.0,0.0,1008.5,19.0,54.0,0,0
2016-09-16 20:05:00,14.4,14.4,14.4,73.0,9.6,1.8,6.3,337.5,0.0,0.0,1008.5,19.0,54.0,0,0
2016-09-16 20:10:00,14.3,14.3,14.3,73.0,9.6,3.1,4.9,315,0.0,0.0,1008.6,19.0,54.0,0,0
2016-09-16 20:15:00,14.3,14.3,14.3,73.0,9.6,2.7,4.5,315,0.0,0.0,1008.6,19.0,54.0,0,0
2016-09-16 20:20:00,14.3,14.3,14.3,73.0,9.5,2.2,4.9,315,0.0,0.0,1008.7,19.0,54.0,0,0
2016-09-16 20:25:00,14.3,14.3,14.3,73.0,9.5,2.2,6.3,337.5,0.0,0.0,1008.7,18.9,54.0,0,0
2016-09-16 20:30:00,14.3,14.3,14.3,73.0,9.5,1.3,3.6,0,0.0,0.0,1008.8,18.8,54.0,0,0
2016-09-16 20:35:00,14.2,14.2,14.2,73.0,9.4,2.2,4.9,315,0.0,0.0,1008.8,18.8,54.0,0,0
2016-09-16 20:40:00,14.2,14.2,14.2,73.0,9.4,1.3,4.9,225,0.0,0.0,1008.8,18.8,54.0,0,0
2016-09-16 20:45:00,14.2,14.2,14.2,73.0,9.4,1.3,3.6,292.5,0.0,0.0,1008.7,18.7,54.0,0,0
2016-09-16 20:50:00,14.1,14.1,14.1,74.0,9.5,2.2,4.0,315,0.0,0.0,1008.7,18.6,55.0,0,0
2016-09-16 20:55:00,14.0,14.0,14.0,74.0,9.4,1.3,3.6,247.5,0.0,0.0,1008.8,18.6,55.0,0,0
2016-09-16 21:00:00,13.9,13.9,13.9,74.0,9.4,1.8,4.9,337.5,0.0,0.0,1008.8,18.5,55.0,0,0
2016-09-16 21:05:00,13.8,13.8,13.8,74.0,9.3,1.8,5.4,292.5,0.0,0.0,1008.7,18.5,55.0,0,0
2016-09-16 21:10:00,13.8,13.8,13.8,75.0,9.4,1.8,5.8,315,0.0,0.0,1009.0,18.5,55.0,0,0
2016-09-16 21:15:00,13.7,13.7,13.7,75.0,9.4,2.2,5.4,292.5,0.0,0.0,1009.0,18.5,55.0,0,0
2016-09-16 21:20:00,13.7,13.7,13.7,75.0,9.3,1.8,4.9,315,0.0,0.0,1009.0,18.5,55.0,0,0
2016-09-16 21:25:00,13.6,13.6,13.6,75.0,9.2,2.2,4.5,315,0.0,0.0,1009.0,18.4,55.0,0,0
2016-09-16 21:30:00,13.5,13.5,13.5,76.0,9.4,2.2,5.8,315,0.0,0.0,1009.1,18.4,55.0,0,0
2016-09-16 21:35:00,13.4,13.4,13.4,76.0,9.3,2.7,5.4,315,0.0,0.0,1009.2,18.3,55.0,0,0
2016-09-16 21:40:00,13.4,13.4,13.4,76.0,9.2,2.2,4.5,315,0.0,0.0,1009.3,18.3,56.0,0,0
2016-09-16 21:45:00,13.3,13.3,13.3,76.0,9.2,2.2,5.4,315,0.0,0.0,1009.3,18.2,56.0,0,0
2016-09-16 21:50:00,13.3,13.3,13.3,76.0,9.1,2.7,6.3,315,0.0,0.0,1009.3,18.2,56.0,0,0
2016-09-16 21:55:00,13.3,13.3,13.3,76.0,9.1,3.6,8.0,315,0.0,0.0,1009.4,18.2,56.0,0,0
2016-09-16 22:00:00,13.2,13.2,13.2,77.0,9.3,3.1,5.8,315,0.0,0.0,1009.4,18.3,56.0,0,0
2016-09-16 22:05:00,13.2,13.2,13.2,77.0,9.2,2.7,5.4,292.5,0.0,0.0,1009.4,18.3,56.0,0,0
2016-09-16 22:10:00,13.2,13.2,13.2,77.0,9.2,3.1,5.4,337.5,0.0,0.0,1009.5,18.2,56.0,0,0